Date String (YYYY-MM-DD hh:mm:ss) UTC,Instrument flags,Ambient pressure (hPa),Sample flow (lpm),Bypass flow (lpm),Sample temperature (°C),Ambient temperature (°C),ASC tube jacket temperature (°C),LED temperature (°C),Box temperature (°C),Sample RH (%),Span deviation,Mass concentration (μg/m³),Mass concentration (μg/m³),Mass concentration (μg/m³)
DateTimeUTC,F1_M11,P_M11,Q1_M11,Q2_M11,T1_M11,T2_M11,T3_M11,T4_M11,T5_M11,U1_M11,ZSPAN_M11,X0_M11,X2_M11,X1_M11
2022-05-26 22:00:00,,0825.9,5.00,0.00,29.4,28.3,00.0,38.2,31.4,14.4,0000.0,0014.41,0004.84,0004.02
2022-05-26 22:01:00,,0826.0,4.99,0.00,29.5,28.4,00.0,38.2,31.4,13.4,0000.0,0014.84,0004.91,0004.07
2022-05-26 22:02:00,,0825.9,5.00,0.00,29.5,28.6,00.0,38.3,31.5,13.5,0000.0,0014.68,0005.01,0004.13
2022-05-26 22:03:00,,0825.9,5.01,0.00,29.5,28.7,00.0,38.3,31.5,12.8,0000.0,0014.28,0005.04,0004.16
2022-05-26 22:04:00,,0826.0,5.00,0.00,29.6,28.6,00.0,38.3,31.5,13.0,0000.0,0014.97,0005.01,0004.15
2022-05-26 22:05:00,,0825.9,5.01,0.00,29.5,27.7,00.0,38.2,31.2,13.2,0000.0,0014.88,0005.00,0004.13
2022-05-26 22:06:00,,0825.9,5.00,0.00,29.4,27.0,00.0,38.2,31.0,13.2,0000.0,0014.85,0005.00,0004.14
2022-05-26 22:07:00,,0825.9,4.99,0.00,29.3,26.9,00.0,38.2,31.0,13.4,0000.0,0014.71,0004.98,0004.13
2022-05-26 22:08:00,,0825.8,5.01,0.00,29.3,27.0,00.0,38.1,31.0,12.8,0000.0,0015.03,0004.92,0004.08
2022-05-26 22:09:00,,0825.9,5.00,0.00,29.3,27.2,00.0,38.1,31.0,12.9,0000.0,0014.27,0004.83,0004.01
2022-05-26 22:10:00,,0825.9,4.98,0.00,29.3,27.4,00.0,38.1,31.1,13.7,0000.0,0013.75,0004.80,0003.96
2022-05-26 22:11:00,,0825.8,5.02,0.00,29.3,27.6,00.0,38.1,31.1,13.8,0000.0,0013.73,0004.76,0003.90
2022-05-26 22:12:00,,0825.9,5.00,0.00,29.3,27.8,00.0,38.1,31.2,12.9,0000.0,0013.29,0004.70,0003.84
2022-05-26 22:13:00,,0825.9,5.01,0.00,29.3,28.0,00.0,38.2,31.2,13.3,0000.0,0012.96,0004.59,0003.76
2022-05-26 22:14:00,,0825.9,4.99,0.00,29.3,28.2,00.0,38.2,31.3,13.0,0000.0,0014.24,0004.49,0003.69
2022-05-26 22:15:00,,0825.9,5.00,0.00,29.4,28.3,00.0,38.2,31.3,13.6,0000.0,0012.85,0004.44,0003.64
2022-05-26 22:16:00,,0825.9,5.00,0.00,29.4,28.5,00.0,38.2,31.4,14.4,0000.0,0012.59,0004.38,0003.59
2022-05-26 22:17:00,,0825.9,5.00,0.00,29.5,28.6,00.0,38.2,31.5,14.0,0000.0,0012.49,0004.35,0003.56
2022-05-26 22:18:00,,0825.9,5.01,0.00,29.5,28.7,00.0,38.3,31.5,13.4,0000.0,0011.94,0004.31,0003.52
2022-05-26 22:19:00,,0825.9,5.00,0.00,29.6,28.8,00.0,38.3,31.6,13.2,0000.0,0011.48,0004.26,0003.50
2022-05-26 22:20:00,,0825.9,4.99,0.00,29.6,28.2,00.0,38.2,31.4,14.9,0000.0,0011.49,0004.28,0003.48
2022-05-26 22:21:00,,0825.9,5.00,0.00,29.5,27.3,00.0,38.2,31.2,14.0,0000.0,0012.12,0004.26,0003.44
2022-05-26 22:22:00,,0825.9,5.02,0.00,29.4,27.1,00.0,38.1,31.1,14.1,0000.0,0012.61,0004.22,0003.42
2022-05-26 22:23:00,,0825.9,4.99,0.00,29.3,27.1,00.0,38.1,31.0,14.2,0000.0,0013.00,0004.19,0003.41
2022-05-26 22:24:00,,0825.9,4.98,0.00,29.3,27.2,00.0,38.1,31.0,14.8,0000.0,0012.81,0004.22,0003.42
2022-05-26 22:25:00,,0825.9,4.99,0.00,29.3,27.4,00.0,38.1,31.1,14.2,0000.0,0011.44,0004.30,0003.42
2022-05-26 22:26:00,,0825.8,5.00,0.00,29.3,27.6,00.0,38.1,31.1,13.8,0000.0,0011.75,0004.34,0003.42
2022-05-26 22:27:00,,0825.9,5.00,0.00,29.3,27.8,00.0,38.1,31.2,13.9,0000.0,0012.07,0004.38,0003.41
2022-05-26 22:28:00,,0825.9,4.99,0.00,29.3,28.0,00.0,38.1,31.2,14.0,0000.0,0011.90,0004.34,0003.37
2022-05-26 22:29:00,,0825.9,5.00,0.00,29.4,28.2,00.0,38.2,31.3,14.2,0000.0,0011.75,0004.30,0003.34
2022-05-26 22:30:00,,0825.9,5.00,0.00,29.4,28.3,00.0,38.2,31.3,14.6,0000.0,0012.16,0004.35,0003.33
2022-05-26 22:31:00,,0825.9,5.02,0.00,29.4,28.5,00.0,38.2,31.4,13.3,0000.0,0012.22,0004.35,0003.32
2022-05-26 22:32:00,,0826.0,5.00,0.00,29.5,28.6,00.0,38.2,31.5,14.7,0000.0,0011.92,0004.37,0003.32
2022-05-26 22:33:00,,0826.0,4.98,0.00,29.5,28.7,00.0,38.3,31.5,13.6,0000.0,0011.32,0004.37,0003.32
2022-05-26 22:34:00,,0826.0,5.01,0.00,29.6,28.8,00.0,38.3,31.6,13.3,0000.0,0011.02,0004.37,0003.32
2022-05-26 22:35:00,,0825.9,5.00,0.00,29.6,28.1,00.0,38.2,31.4,13.7,0000.0,0011.11,0004.33,0003.30
2022-05-26 22:36:00,,0825.9,4.99,0.00,29.5,27.2,00.0,38.2,31.1,12.9,0000.0,0011.49,0004.27,0003.28
2022-05-26 22:37:00,,0825.9,5.01,0.00,29.4,27.0,00.0,38.1,31.0,13.7,0000.0,0011.61,0004.19,0003.26
2022-05-26 22:38:00,,0825.8,5.00,0.00,29.3,27.1,00.0,38.1,31.0,14.3,0000.0,0011.50,0004.09,0003.24
2022-05-26 22:39:00,,0825.9,4.99,0.00,29.3,27.2,00.0,38.1,31.0,13.7,0000.0,0011.12,0004.09,0003.25
2022-05-26 22:40:00,,0825.9,5.00,0.00,29.3,27.4,00.0,38.1,31.1,13.5,0000.0,0011.69,0004.11,0003.26
2022-05-26 22:41:00,,0825.8,5.00,0.00,29.3,27.6,00.0,38.1,31.1,13.7,0000.0,0012.13,0004.06,0003.27
2022-05-26 22:42:00,,0825.9,5.00,0.00,29.3,27.8,00.0,38.1,31.2,13.7,0000.0,0012.82,0003.98,0003.26
2022-05-26 22:43:00,,0825.8,5.01,0.00,29.3,28.0,00.0,38.1,31.3,13.4,0000.0,0012.96,0003.92,0003.25
2022-05-26 22:44:00,,0825.8,5.00,0.00,29.4,28.2,00.0,38.2,31.3,14.8,0000.0,0014.09,0003.93,0003.24
2022-05-26 22:45:00,,0825.9,4.98,0.00,29.4,28.3,00.0,38.2,31.4,15.1,0000.0,0014.51,0003.95,0003.24
2022-05-26 22:46:00,,0825.9,5.00,0.00,29.4,28.5,00.0,38.2,31.4,13.1,0000.0,0014.79,0003.95,0003.23
2022-05-26 22:47:00,,0825.9,5.00,0.00,29.5,28.6,00.0,38.2,31.5,12.6,0000.0,0014.86,0003.93,0003.22
2022-05-26 22:48:00,,0825.9,5.01,0.00,29.5,28.7,00.0,38.3,31.5,12.3,0000.0,0014.93,0003.93,0003.21
2022-05-26 22:49:00,,0825.8,4.99,0.00,29.6,28.8,00.0,38.3,31.6,12.9,0000.0,0015.30,0003.95,0003.21
2022-05-26 22:50:00,,0825.9,5.00,0.00,29.6,28.1,00.0,38.2,31.4,12.9,0000.0,0016.28,0003.93,0003.21
2022-05-26 22:51:00,,0825.8,5.00,0.00,29.5,27.3,00.0,38.2,31.2,12.9,0000.0,0016.17,0003.89,0003.19
2022-05-26 22:52:00,,0825.9,5.02,0.00,29.4,27.1,00.0,38.1,31.1,13.4,0000.0,0015.11,0003.87,0003.17
2022-05-26 22:53:00,,0825.9,5.00,0.00,29.3,27.1,00.0,38.1,31.0,12.6,0000.0,0014.17,0003.84,0003.16
2022-05-26 22:54:00,,0825.8,4.99,0.00,29.3,27.3,00.0,38.1,31.0,12.5,0000.0,0013.86,0003.83,0003.14
2022-05-26 22:55:00,,0825.8,5.00,0.00,29.3,27.5,00.0,38.1,31.1,13.3,0000.0,0012.72,0003.78,0003.12
2022-05-26 22:56:00,,0825.9,5.01,0.00,29.3,27.7,00.0,38.1,31.1,13.7,0000.0,0012.39,0003.74,0003.09
2022-05-26 22:57:00,,0825.9,4.99,0.00,29.3,27.9,00.0,38.1,31.2,12.8,0000.0,0013.02,0003.72,0003.07
2022-05-26 22:58:00,,0826.0,5.00,0.00,29.3,28.0,00.0,38.2,31.3,12.5,0000.0,0012.17,0003.72,0003.05
2022-05-26 22:59:00,,0825.9,5.01,0.00,29.4,28.2,00.0,38.2,31.3,12.8,0000.0,0011.89,0003.72,0003.01
